Location: Bachas
(43.2439°N, 0.9375°E)
Time: 10:29:44
(UTC+00:00)

Cosmos 1802 Rocket - Pass Details

Date: 18 February 2020
Orbit: 954 x 1011 km, 82.9° (Epoch: 29 March)

Event Time Altitude Azimuth Distance (km) Brightness Sun altitude
Rises 05:53:49 0° 348° (NNW) 3,752 6.9 -11.0°
Reaches altitude 10° 05:56:24 10° 346° (NNW) 2,800 6.2 -10.6°
Maximum altitude 06:02:43 62° 267° (W) 1,134 4.1 -9.4°
Drops below altitude 10° 06:09:00 10° 189° (S) 2,775 6.4 -8.3°
Sets 06:11:32 0° 186° (S) 3,716 7.1 -7.8°
